Location: Baumgarten
(49.0970°N, 12.7493°E)
Time: 08:15:10
(UTC+00:00)

SL-16 R/B - Pass Details

Date: 05 July 2020
Orbit: 839 x 850 km, 71.0° (Epoch: 04 August)

Event Time Altitude Azimuth Distance (km) Brightness Sun altitude
Exits shadow 21:19:02 13° 118° (ESE) 2,226 3.9 -13.8°
Maximum altitude 21:20:47 15° 97° (E) 2,114 4.0 -13.9°
Drops below altitude 10° 21:23:56 10° 63° (ENE) 2,477 4.6 -14.2°
Sets 21:27:24 0° 42° (NE) 3,420 5.7 -14.4°
